GFSGBSN_prec_radar_057.txt.gz
Reflectivity
-1 14 5 11 11 12 7 10 12 -13 -20 -7 13 -1 16 14 6 -18 -20 -20 -20 -20 -20 -20 -20 -20 -20 -20 -20 -20 -20 -20 -20 -20 -20 -20 -20 -20 -20 -20 -20 -20 -20 -20 -20 -20 -20
13 5 1 5 4 12 13 4 -20 -2 -20 -20 -16 9 -1 11 14 11 -20 -20 -20 -20 -20 -20 -20 -20 -20 -20 -20 -20 -20 -20 -20 -20 -20 -20 -20 -20 -20 -20 -20 -20 -20 -20 -20 -20 -20
13 -18 3 3 9 13 14 15 1 -10 -20 -20 -20 1 9 -20 -16 11 5 -20 -20 -20 -20 -20 -20 -20 -20 -20 -20 -20 -20 -20 -20 -20 -20 -20 -20 -20 -20 -20 -20 -20 -20 -20 -20 -20 -20
8 12 10 -2 -1 6 12 15 15 4 -1 -19 -20 -20 -20 -20 -20 7 9 -20 -20 -20 -20 -20 -20 -20 -20 -20 -20 -20 -20 -20 -20 -20 -20 -20 -20 -20 -20 -20 -20 -20 -20 -20 -20 -19 -20
-20 -20 6 16 -9 13 4 11 10 12 13 3 -20 -20 -20 -20 6 1 16 -8 -20 -20 -20 -20 -20 -20 -20 -20 -20 -20 -20 -20 -20 -20 -20 -20 -20 -20 -20 -20 -20 -20 -20 -20 -20 -20 -20
-20 -20 -18 11 10 8 7 10 9 14 12 10 -7 -20 -20 -20 -3 -14 7 -20 -20 -20 -20 -9 -20 -20 -20 -20 -20 -20 -20 -20 -20 -20 -20 -20 -20 -20 -20 -20 -20 -20 -20 -20 -1 -20 -20
-20 -20 -20 -20 -5 8 14 13 11 5 11 13 5 -20 -20 -20 -20 -20 -14 -20 -20 -20 -20 -8 -20 -20 -20 -20 -20 -20 -20 -20 -20 -20 -20 -20 -20 -20 -20 -20 -20 -20 -20 -20 -20 -20 -20
-12 -20 -20 -20 -20 -15 15 10 15 10 15 10 10 6 -20 -20 -20 -9 7 -20 -20 -20 -20 -20 -20 -20 -20 -20 -20 -20 -20 -20 -20 -20 -20 -20 -20 -20 -20 -20 -20 -20 -20 -20 -20 -20 -20
7 6 -13 -20 -20 -20 -15 19 9 5 14 12 11 5 -20 -20 -20 3 -20 -20 -15 -20 -20 -20 -20 -18 1 -20 -20 -20 -20 -20 -20 -20 -20 -20 -20 -20 -20 -20 -20 -20 -20 -20 -20 -20 -20
2 5 6 1 -20 -20 -20 5 20 11 14 14 13 13 -20 -20 2 -20 -20 -20 -20 -10 -19 -20 -20 -20 -15 -20 -20 -20 -20 -20 -20 -20 -20 -20 -20 -20 -20 -20 -20 -20 -20 -20 -20 -20 -20
11 5 -1 9 -18 -20 -20 -20 5 21 11 15 15 12 -20 -20 -20 -20 -20 -20 -20 -20 -20 -20 -20 -20 -20 -20 -20 -20 -20 -20 -20 -20 -20 -20 -20 -20 -20 -20 -20 -20 -20 -20 -20 -20 -20
-19 -8 11 6 8 -4 -20 -20 -20 9 19 15 16 13 -7 -20 11 -7 -19 -20 -20 -20 -10 -20 -20 -20 -20 -20 -20 -20 -20 -20 -20 -20 -20 -20 -20 -20 -20 -20 -20 -20 -20 -20 -20 -20 -20
9 3 -7 -3 10 8 -16 -20 -20 -20 17 15 13 17 11 7 -15 -12 -0 -20 -6 -11 -20 -20 -20 -20 -20 -20 -20 -20 -20 -20 -20 -20 -20 -20 -20 -20 -20 -20 -20 -20 -20 -20 -20 -20 -20
16 11 8 4 5 18 12 -16 -20 -20 8 19 14 18 4 -20 3 -11 4 -20 -18 -20 -20 -20 1 3 -20 -20 -20 -20 -20 -20 -20 -20 -20 -20 -20 -20 -20 -20 -20 -20 -20 -20 -20 -20 -20
15 16 13 14 6 9 15 10 -20 -20 -20 20 16 19 4 -20 -20 -14 13 11 -20 -20 -20 -20 -20 -7 -19 -20 -20 -20 -20 -20 -20 -20 -20 -20 -20 -20 -20 -20 -20 -20 -20 -20 -20 -20 -20
21 19 15 8 16 14 9 13 -10 -20 -5 21 12 20 9 -20 -20 8 13 1 -20 -20 -20 -19 -20 -20 -20 -20 -20 -20 -20 -20 -20 -20 -20 -20 -20 -20 -20 -20 -20 -20 -20 -20 -20 -20 -20
15 17 18 16 15 18 15 10 5 -16 -1 19 13 22 8 -20 19 21 11 -2 -20 -20 -20 -8 -20 -20 -20 -20 -20 -20 -20 -20 -20 -20 -20 -20 -20 -20 -20 -20 -20 -20 -20 -20 -20 -20 -20
-17 15 19 16 26 21 24 1 8 -19 8 25 18 20 -8 -20 23 11 8 -4 -20 -20 -20 -20 -20 -20 -20 -20 -20 -20 -20 -20 -20 -20 -20 -20 -20 -20 -20 -20 -20 -20 -20 -20 -20 -20 -20
8 -11 -1 27 22 27 31 24 15 -20 -3 32 27 17 -9 -20 10 -20 -3 4 -17 -20 -20 -20 -19 -20 -20 -20 -20 -20 -20 -20 -20 -20 -20 -20 -20 -20 -20 -20 -20 -20 -20 -20 -20 -20 -20
15 11 1 8 20 29 33 29 21 -20 -20 18 22 24 25 22 -20 -20 1 -7 2 -20 -20 -20 -7 -20 -20 -20 -20 -20 -20 -20 -20 -20 -20 -20 -20 -20 -20 -20 -20 -20 -20 -20 -20 -20 -20
11 19 7 -2 -20 31 34 31 28 -20 -15 35 -2 29 4 11 3 -20 -20 -20 -19 -13 -20 -20 -20 -20 -20 -20 -20 -20 -20 -20 -20 -20 -20 -20 -20 -20 -20 -20 -20 -20 -20 -20 -20 -20 -20
14 18 16 -10 6 28 34 30 31 12 -2 35 27 15 -20 3 -20 5 10 -2 -20 -20 -20 -20 -20 -2 -20 -13 -2 -20 -20 -20 -20 -20 -20 -20 -20 -20 -20 -20 -20 -20 -20 -20 -20 -20 -20
7 19 11 13 21 36 35 33 33 25 18 36 9 -20 -20 -20 -19 0 -20 -20 -8 -20 -20 -20 -20 18 9 2 10 -19 -20 -20 -20 -20 -20 -20 -20 -20 -20 -20 -20 -20 -20 -20 -20 -20 -20
12 11 16 12 2 35 32 32 32 24 0 26 11 -20 11 7 -12 -20 -20 4 -20 -20 -20 -20 -11 8 13 7 2 -16 -20 -20 -20 -20 -20 -20 -20 -20 -20 -20 -20 -20 -20 -20 -20 -20 -20
21 20 29 16 23 38 31 33 26 6 -7 19 -20 -20 -10 5 5 -11 -20 -16 9 -12 -20 -19 10 8 10 -7 -13 -20 -20 -20 -20 -20 -20 -20 -20 -20 -20 -20 -20 -20 -20 -20 -20 -20 -20
22 33 14 18 24 33 31 33 22 4 19 26 -20 -20 -20 20 5 -19 -20 -20 -12 -5 -20 -20 3 16 9 2 -19 -20 -20 -20 -20 -20 -20 -20 -20 -20 -20 -20 -20 -20 -20 -20 -20 -20 -20
23 -9 -20 -4 27 32 32 21 17 6 26 18 -20 -20 -20 -9 26 12 3 -20 -20 -20 -20 -20 -16 7 -1 -6 -20 -20 -20 -20 -20 -20 -20 -20 -20 -20 -20 -20 -20 -20 -20 -20 -20 -20 -20
-7 -13 16 26 32 33 26 17 8 -7 27 22 -5 -20 -2 21 18 25 -1 -20 -20 -20 -20 -20 -20 2 -4 -20 -20 -20 -20 -20 -20 20 -20 -20 -20 -20 -20 -20 -20 -20 -20 -20 -20 -20 -20
18 32 33 30 28 33 22 19 4 12 20 26 8 -19 30 12 12 7 24 13 -20 -20 -20 -20 -20 -20 -17 -20 -20 -20 -20 -20 -20 -20 -20 -20 -20 -13 -20 -20 -20 -20 -20 -20 -20 -20 -20

GFSGBSN_prec_radar_060.txt.gz
Reflectivity
10 -6 5 10 1 3 9 10 9 -12 -20 -15 -20 -20 -13 10 8 2 -20 -6 -20 -20 -20 -20 -20 -20 -20 -20 -20 -20 -20 -20 -20 -20 -20 -20 -20 -20 -20 -20 -20 -20 -20 -20 -20 -20 -20
-20 6 10 -3 -2 -1 -1 11 4 -0 -20 -20 -20 -20 -20 -1 11 10 -3 10 -20 -20 -20 -20 -20 -20 -20 -20 -20 -20 -20 -20 -20 -20 -20 -20 -20 -20 -20 -20 -20 -20 -20 -20 -20 -20 -20
-0 -1 -19 16 -5 0 -3 -5 1 8 -6 -20 -20 -20 -20 -20 -20 -12 6 1 -20 -20 -20 -20 -20 -20 -20 -20 -20 -20 -20 -20 -20 -20 -20 -20 -20 -20 -20 -20 -20 -20 -20 -20 -20 -20 -20
6 -3 -20 -20 11 10 -20 3 -2 1 3 -9 -10 -20 -20 -20 -20 -7 4 5 -20 -20 -20 -20 -20 -20 -20 -20 -20 -20 -20 -20 -20 -20 -20 -20 -20 -20 -20 -20 -20 -20 -20 -20 -20 -20 -20
-4 6 -15 -7 -14 -16 4 0 2 -3 5 1 -11 -12 -20 -20 -20 -20 -16 -20 -20 -20 -20 -20 -20 -20 -20 -20 -20 -20 -20 -20 -20 -20 -20 -20 -20 -20 -20 -20 -20 -20 -20 -20 -20 -20 -20
0 -8 -5 -20 -20 -20 -20 17 9 -6 -11 8 7 -2 -17 -20 -20 -20 -20 -17 -20 -20 -18 -20 -20 -20 -20 -20 -20 -20 -20 -20 -20 -20 -20 -20 -20 -20 -20 -20 -20 -20 -20 -20 -10 -18 -20
-1 8 -11 -20 -20 -20 -20 -20 13 7 -2 10 10 6 -14 -20 -20 -20 -6 -20 -20 -20 -18 -20 -20 -20 -20 -20 -20 -20 -20 -20 -20 -20 -20 -20 -20 -20 -20 -20 -20 -20 -20 -20 -20 -20 -20
-20 -20 -7 6 -14 -20 -20 -20 -20 17 -1 -6 7 12 5 -20 -20 -20 -8 8 -20 -20 -20 -20 -20 -20 -20 -20 -20 -20 -20 -20 -20 -20 -20 -20 -20 -20 -20 -20 -20 -20 -20 -20 -20 -20 -20
-20 -20 -20 -20 6 1 -20 -20 -20 -19 15 -1 8 13 11 -19 -20 -3 -20 3 -20 -20 -20 -20 -20 -20 -20 -20 -20 -20 -20 -20 -20 -20 -20 -20 -20 -20 -20 -20 -20 -20 -20 -20 -20 -20 -20
-14 6 3 4 5 4 -6 -20 -20 -20 2 9 7 12 10 -20 -18 1 -3 -20 -20 -20 -20 -20 7 -18 -20 -20 -20 -20 -20 -20 -20 -20 -20 -20 -20 -20 -20 -20 -20 -20 -20 -20 -20 -20 2
-20 -20 -20 -10 11 13 -2 -20 -20 -20 -20 20 10 11 13 -20 2 -20 -20 -20 -20 -7 -20 -20 -19 -13 -20 -20 -13 7 -20 -20 -20 -20 -20 -20 -20 -20 -20 -20 -20 -20 -20 -20 -20 -20 -20
12 -13 -17 -8 1 2 9 -17 -20 -20 -20 -14 20 11 13 3 -20 -20 -20 -20 -20 -13 -20 -20 -20 -12 -20 -20 -20 -20 -20 -20 -20 -20 -20 -20 -20 -20 -20 -20 -20 -20 -20 -20 -20 -20 -20
10 9 8 5 -9 -2 -7 15 -11 -19 -20 -20 3 17 18 -1 -20 -20 -20 -20 -6 -20 -20 -20 -20 -15 -4 -20 -20 -20 -20 -20 -20 -20 -20 -20 -20 -20 -20 -20 -20 -20 -20 -6 3 -20 -20
-2 -3 8 4 8 5 1 -0 13 -2 -20 -20 -17 13 14 12 -19 12 4 1 -20 -20 -20 -20 -20 -7 3 -20 -20 -20 -20 -20 -20 -20 -20 -20 -20 -20 -20 -20 -20 -20 -20 -20 -19 -20 -20
14 13 13 13 10 8 6 9 5 3 -5 -20 2 9 8 -6 -20 -1 19 10 -20 -20 -20 -20 -20 -20 -1 -20 -20 -20 -20 -20 -20 -20 -20 -20 -20 -20 -20 -20 -20 -20 -20 -20 -20 -20 -20
17 16 15 13 13 9 17 20 7 7 -3 -20 -1 27 2 -1 -19 18 13 -20 -20 -20 -20 -20 -20 -20 -20 15 -20 -20 -20 -20 -20 -20 -20 -20 -20 -20 -20 -20 -20 -20 -20 -20 -20 -20 -20
17 17 21 12 8 16 13 16 18 4 12 -20 18 31 -7 -20 15 27 25 -20 -20 -20 -20 -20 -15 -20 -20 -12 15 -17 -20 -20 -20 -20 -20 -20 -20 -20 -20 -20 -20 -20 -20 -20 -20 -20 -20
8 -19 16 20 12 9 23 19 17 -2 24 13 9 30 22 -20 8 22 9 -20 -20 -20 -20 -20 -20 -20 -20 -20 -15 -3 -20 -20 -20 -20 -20 -20 -20 -20 -20 -20 -20 -20 -20 -20 -20 -20 -20
7 -15 -20 17 29 16 29 26 22 27 19 18 17 32 24 -19 4 5 7 2 -20 -20 -20 -20 -20 -2 -20 -20 -20 -20 -13 -11 -20 -20 -20 -20 -20 -20 -20 -20 -20 -20 -20 -20 -20 -20 -20
12 9 7 2 14 8 20 24 32 31 29 20 20 34 26 21 -20 -18 9 3 -11 -20 -20 -20 -20 1 -10 -14 -20 -20 -14 -6 -20 -20 -20 -20 -20 -20 -20 -20 -20 -20 -20 -20 -20 -20 -20
16 14 13 -5 19 -20 -0 23 34 32 36 22 17 24 3 13 8 -20 -20 -20 -1 3 -20 -20 -20 -19 -13 -8 -13 -20 -20 -20 -20 -20 -20 -20 -20 -20 -20 -20 -20 -20 -20 -20 -20 -20 -20
17 16 13 9 16 14 19 21 34 32 37 29 31 -8 8 -20 -20 -20 -20 5 -15 -20 -20 -20 -20 -20 -14 -16 5 -16 -20 -20 -20 -20 -20 -20 -20 -20 -20 -20 -20 -20 -20 -20 -20 -20 -20
-0 16 12 28 9 10 13 23 38 32 39 31 30 -20 -12 -20 -6 9 -6 -20 -20 -20 -20 -20 -20 0 -1 6 6 -6 0 -20 -20 -20 -20 -20 -20 -20 -20 -20 -20 -20 -20 -20 -20 -20 -20
12 18 14 8 14 13 14 0 36 31 39 12 20 4 13 9 15 -13 -20 -20 -20 -20 -11 -20 -20 -20 5 11 13 -6 -20 -15 -20 -20 -20 -20 -20 -20 -20 -20 -20 -15 -20 -20 -20 -20 -20
15 10 14 -6 13 11 12 -11 33 33 34 7 -20 11 -15 10 -17 0 -13 -20 -20 -10 -18 -20 -20 -20 9 9 7 -4 -20 -20 -20 -20 -20 -20 -20 -20 -20 -20 -20 -19 -20 -20 -20 -20 -20
18 15 16 12 15 9 17 10 35 33 31 10 -20 -9 18 8 -19 -20 -19 -20 -18 -7 11 -20 -20 -20 -3 12 -7 -20 -20 -20 -18 -20 -20 -20 -20 -20 -20 -20 -20 -13 -20 -20 -20 -20 -20
20 28 21 10 23 -1 -10 10 24 33 31 13 4 -20 16 2 -20 -13 19 -11 -20 -6 -3 15 -20 -20 -20 -8 -18 -20 -20 -20 -20 -20 -20 -20 -20 -20 -20 -20 -20 -20 -20 -20 -20 -17 -20
13 12 -7 20 13 1 23 26 31 32 33 13 5 -20 18 8 10 -11 -20 20 2 23 17 2 11 -20 -20 -20 -18 -20 -20 -20 -20 -20 -20 -20 -20 -20 -20 -20 -20 -11 -15 -20 -20 -20 -20
28 30 26 8 -2 9 25 28 32 31 32 9 6 6 -20 21 8 -15 25 -1 10 -20 -16 10 -20 -20 -20 -20 -20 -20 -19 1 -20 -20 -20 -20 -20 -20 -20 -20 -20 -20 -20 -20 -20 -20 -20

GFSGBSN_prec_radar_063.txt.gz
Reflectivity
-9 -5 -6 11 5 -20 -20 6 2 -4 -7 -20 -20 -20 -20 -20 -20 -20 -20 -20 -20 -20 -20 -20 -20 -20 -20 -20 -20 -20 -20 -20 -20 -20 -20 -20 -20 -20 -20 -20 -20 -20 -20 -20 -20 -20 -20
-20 -20 -20 -20 -16 15 -20 -0 -3 5 -11 -20 -20 -20 -20 -20 -20 -20 -20 -20 -20 -20 -20 -20 -20 -20 -20 -20 -20 -20 -20 -20 -20 -20 -20 -20 -20 -20 -20 -20 -20 -20 -20 -20 -20 -20 -20
-19 -16 5 -20 -20 -20 10 6 -4 -20 -13 -3 -5 -13 -20 -20 -20 -20 -20 -20 -12 -20 -20 -20 -20 -20 -20 -20 -20 -20 -20 -20 -20 -20 -20 -20 -20 -20 -20 -20 -20 -20 -20 -20 -20 -20 -20
-18 -4 -13 6 -3 -5 -20 -12 11 6 -20 -4 -3 3 -2 -20 -20 -20 -20 -20 -20 -20 -20 -20 -20 -20 -20 -9 -20 -20 -20 -20 -20 -20 -20 -20 -20 -20 -20 -20 -20 -20 -20 -19 9 -2 -20
6 -0 -20 -20 -20 -20 -20 -20 -20 10 -2 -20 -10 -9 -14 -10 -20 -20 -20 -20 -20 -20 -20 -20 -20 -20 -20 -20 -20 -20 -20 -20 -20 -20 -20 -20 -20 -20 -20 -20 -20 -20 -20 -10 -7 -20 -11
-20 -20 7 8 -20 -20 -20 -20 -20 -20 -7 2 -13 8 -7 -3 -20 -20 -20 -20 -20 -20 -20 -20 -20 -20 -20 -20 -20 -20 -20 -20 -20 -20 -20 -20 -20 -20 -20 -20 -20 8 -20 -19 -20 1 -20
-7 -2 -9 -20 8 3 -20 -20 -20 -20 -20 10 2 -11 -2 -3 -20 -20 -20 -20 -20 -20 -20 -20 -20 -20 -20 -20 -20 -20 -20 -20 -20 -20 -20 -20 -20 -20 -20 -20 -20 -20 -20 -20 -6 -20 -20
-20 -19 -20 -20 -20 -14 -8 -15 -20 -20 -20 -20 13 -1 8 2 -2 -20 -4 -20 -20 -20 -20 -20 -20 -20 -20 -20 -20 -20 -20 -20 -20 -20 -20 -20 -20 -20 -20 -20 -20 -20 -20 -19 -13 -20 -20
-20 -20 -10 -9 -8 -20 -20 6 -7 -20 -20 -20 -18 7 3 6 -20 -20 -16 -20 -20 -20 -20 -20 -20 -20 -20 -20 -20 -20 -20 -20 -20 -20 -20 -20 -20 -20 -20 -20 -20 -20 -17 -9 -20 12 -20
-7 -20 -20 -0 5 -20 -20 -20 1 -20 -20 -20 -5 8 6 8 -18 -20 -20 -20 -20 -20 -20 -20 -20 -20 -20 -20 -20 -20 -20 -20 -20 -20 -20 -20 -20 -20 -20 -20 -20 1 -15 -20 -20 -20 5
1 -7 -14 -15 3 2 -5 -19 12 10 -20 -20 -20 11 9 -6 -20 -19 -20 -20 -20 -8 -20 -20 -20 -20 -20 -20 -20 -19 -20 -20 -20 -20 -20 -20 -20 -20 -20 -20 -20 -20 -14 -20 -20 -20 -11
6 4 7 1 -8 -5 -15 -4 -10 -7 14 -20 -17 -16 10 14 -14 -20 10 -20 -8 -20 -20 -20 -20 -20 -20 -20 -20 -20 -20 -20 2 -13 -20 -20 -20 -20 -20 -20 -20 -20 -20 -20 -20 -20 -20
1 7 4 0 1 -3 5 3 -3 5 8 10 -20 -20 11 -2 3 -20 7 12 -20 -20 -20 -20 -20 -20 -20 -20 -20 -20 -20 -20 -19 -20 -20 -20 -20 -20 -20 -20 -20 -20 -20 -18 -11 -0 -20
6 13 9 3 -5 2 6 -5 1 -6 -5 -15 -18 -17 -8 5 -20 1 10 11 -20 -20 -20 -20 -20 -20 -20 -20 -20 -10 -20 -20 -20 -20 -20 -20 -20 -20 -20 -20 -20 -20 -20 -20 20 6 23
13 9 15 14 9 -3 7 6 7 6 1 9 15 -6 2 17 -20 11 23 16 -20 -20 -20 -20 -20 -20 -20 -20 -13 14 -0 -20 -19 -5 -20 -20 -20 -19 -20 -20 -20 -15 -20 0 18 -20 -20
14 15 16 11 8 12 12 16 17 18 3 13 -10 11 3 3 14 12 31 23 -20 -20 -20 -20 -20 -20 -20 -20 -20 16 8 -7 -7 -20 -20 -20 -20 -20 -20 -20 -20 -15 -17 -20 -20 7 -20
15 14 17 13 13 13 4 14 15 16 21 17 -10 16 -12 23 25 18 19 -4 -20 -20 -20 -20 -20 -20 -20 -20 -20 -9 13 9 14 -5 -20 -20 -20 -20 -20 -20 -20 -20 -20 -20 -1 -16 -5
2 16 20 19 27 23 18 12 13 15 28 23 28 13 -10 21 20 16 -10 -20 -20 -20 -20 -20 -20 -20 -20 -20 -20 -16 6 -4 9 -5 -20 -20 -20 -20 -20 -20 -20 13 -20 -20 -20 -20 -20
5 14 12 15 6 2 17 20 12 16 28 27 34 22 18 18 12 7 -20 -20 -20 -20 -20 -20 -20 -20 -20 -20 -13 -20 12 10 -18 -20 -20 -20 -20 -20 -20 -20 -20 -20 -20 -20 -20 -20 -4
16 11 12 18 13 -3 -9 20 18 21 24 28 31 28 25 23 -7 -20 -20 -20 -20 -20 -20 -13 -20 -20 -20 -20 -5 -17 12 9 6 -20 -20 -20 -20 -20 -20 -20 -20 -20 -20 -14 -20 -20 -20
-20 12 20 21 7 13 0 -3 33 17 31 29 33 20 24 12 11 -20 -20 -20 -20 -20 -20 -19 -17 -20 -13 -20 -3 -10 -19 14 5 -9 -20 -20 -20 -20 -20 -20 -20 -20 -20 -20 -10 -20 -20
-19 7 21 25 15 14 12 19 34 31 36 29 35 3 11 5 10 4 -20 -20 -20 -20 -20 4 -19 -20 -20 -20 -15 8 2 -0 2 -19 -20 -20 -20 -20 -20 -20 -20 -20 -20 -20 -20 -20 -20
11 12 12 13 15 16 7 -20 22 38 33 36 31 -20 9 5 3 14 -6 -20 -20 -20 -20 -20 -19 5 -19 -20 -8 -2 -3 1 -15 -20 -20 -20 -20 -20 -20 -20 -20 -20 -20 -20 -20 -20 -20
-5 13 15 12 3 14 13 10 12 30 40 39 23 -14 24 18 13 -17 -20 -20 -20 -20 -20 -7 -4 -6 10 -7 -20 -3 7 11 0 2 -20 -20 -20 -20 -20 -20 5 -13 -20 -20 -20 -20 -20
-13 10 12 17 15 19 17 15 14 -9 36 33 4 -7 19 17 -1 -5 -20 -20 -20 -20 2 -20 -17 -20 28 -20 -20 -11 2 13 16 -3 -11 -20 -20 11 10 -20 -20 -20 -20 -20 -20 -20 -20
-4 22 16 28 26 30 23 17 17 -5 39 33 19 -19 17 19 -18 -6 -20 -20 -20 -20 10 -17 -20 -19 9 -20 -20 -20 4 16 5 2 -20 -20 -20 -20 -20 -20 -20 -10 -16 -20 -20 -20 -20
9 15 19 5 -7 -1 30 20 9 -19 28 26 28 -11 17 18 18 26 -14 -20 -20 -14 -13 -3 6 23 -20 -9 6 -20 -20 -3 -15 19 10 3 -20 9 -6 -16 -20 -19 -7 -17 -20 -20 -20
21 20 14 10 14 6 26 15 4 19 31 38 15 -20 6 23 18 6 -2 -20 -20 -14 13 -2 16 14 14 12 -15 -20 -20 -20 -20 -13 -9 -20 -5 -20 11 16 -20 -18 6 -12 -20 -20 -20
19 15 15 -20 -6 9 11 9 -18 18 31 30 20 7 4 22 28 22 26 2 -20 -20 -20 -19 30 -20 -20 -20 -20 -20 8 -15 -20 -20 5 29 -8 24 -18 -20 -20 -11 -3 -20 -20 -20 -20

GFSGBSN_prec_radar_069.txt.gz
Reflectivity
3 -12 -20 -20 -20 -20 -20 -20 -20 -16 0 -20 -20 -20 -20 -20 -20 -20 -20 -20 -20 -20 -20 -20 5 -16 -20 -20 -20 -20 -20 -20 -20 -20 -20 -20 -20 -20 -20 -20 -20 -20 -20 -20 -20 -20 -20
8 -4 2 11 -14 -20 -20 -20 -20 -20 -4 11 -8 -20 -20 -20 -19 -14 -20 -20 -20 -20 -20 -20 -18 -20 -20 -20 -20 -20 -20 -20 -20 -20 -20 -20 -20 -20 -20 -20 -20 -20 -20 -20 -20 -20 -20
-19 -1 10 9 10 11 -1 -20 -20 -20 -20 -18 8 5 -4 -4 -20 -20 -20 -20 -20 -20 -20 -20 -20 15 -18 -11 -20 -20 -20 -20 -20 -20 -20 -20 -20 -20 -20 -20 -20 -20 -20 -20 -20 -20 -20
-20 -20 -20 -20 -20 11 9 10 -13 -20 -20 -20 -17 4 -2 -16 -20 -20 -20 -20 -20 -20 -20 -20 -20 8 -20 -20 -20 -20 -20 -20 -20 -20 -20 -20 -20 -20 -20 -20 -20 -20 -20 -20 -20 -20 -20
-12 -20 -20 -1 -1 -11 -20 -8 -8 -20 -20 -20 -20 -20 -11 5 -10 -17 -20 -20 -20 -20 -20 -20 4 -20 -20 -20 -20 -20 -20 -20 -20 -20 -20 -20 -20 -20 -20 -20 -20 -20 -20 -20 -20 -20 -20
-14 -3 -1 -2 -14 -3 2 -2 -13 10 -11 -20 -20 -20 -20 -20 3 -20 -20 -20 -20 -20 -20 -20 -20 -17 -20 -20 -20 -20 -20 -20 -20 -20 -20 -20 -20 -20 -20 -20 -20 -20 -20 11 -20 -20 -20
-5 -1 -1 1 -20 -20 -20 -20 -20 -20 -20 -17 -20 -20 -20 -20 2 -10 -20 -20 -20 -20 -20 -20 -20 -20 -20 -20 -20 -20 -20 -20 -20 -20 -20 -20 -20 -20 -20 -20 -20 -20 -20 -20 -20 -20 -20
0 -3 4 10 12 11 10 8 -13 -8 -16 -0 -20 -20 -20 -20 -14 9 -20 -20 -20 -20 -20 -20 -20 -20 -20 -20 -20 -20 -20 -20 -20 -20 -20 -20 -20 -20 -20 -20 -20 -20 -20 -20 -17 -20 -20
-11 0 0 7 12 14 13 2 14 -7 -18 -20 -18 -20 -20 -20 -20 -20 -20 -20 -20 -20 -20 -20 -20 -20 -20 -20 -20 -20 -20 -20 -20 -20 -20 -20 -12 -20 -20 -20 -20 -20 -20 -20 -20 -20 -20
-20 -18 0 -12 7 -1 4 -10 16 8 8 -3 -20 -20 -20 -20 -20 -20 -20 -20 -20 -20 -18 -20 -20 -20 -20 -20 -20 -20 -20 -20 -20 -20 -20 -20 -12 -20 -18 -20 -20 -20 -20 -20 -20 -20 -20
-16 3 -7 -16 -15 -20 -19 7 -20 11 -18 7 9 4 -20 10 -20 -20 -20 11 -20 -13 -20 -20 -20 -20 -20 -20 -20 -20 -20 -20 -20 -20 -20 -19 -2 -20 -13 -20 -20 -20 -20 -20 -20 -20 -20
0 4 10 5 0 1 1 -3 -7 -8 8 9 3 14 -3 -9 -2 -20 -20 -20 -20 8 -19 -20 -20 -20 -20 -20 -20 -20 -20 -20 -20 -20 -20 -20 -20 -20 -20 -20 -20 -20 -16 -20 -20 -20 -20
-3 -20 -16 -10 -6 5 8 4 3 9 12 8 14 -2 17 -20 -17 -20 -20 -20 5 -6 -20 -20 -20 -20 -20 -20 -20 -20 -20 -20 -20 -20 -20 -20 -20 -20 -20 -20 -20 -20 -20 -20 -20 -20 -20
-11 -1 -10 9 10 9 11 7 9 14 16 5 12 1 4 12 -20 -20 1 -12 18 -20 -20 -20 -20 -20 -20 -20 -20 -20 -20 -20 -20 -20 -20 -16 -17 -20 -7 -20 -10 -20 -20 -20 -20 -20 -20
16 15 12 13 10 11 11 11 2 12 17 17 21 15 -4 -16 -20 -3 14 16 -16 -20 -20 -20 -20 -20 -20 -20 -20 -20 -20 -20 -20 -20 -20 -20 -20 9 8 -20 -20 -20 -20 -20 -20 -20 -20
16 9 11 9 7 10 9 9 10 11 16 11 26 26 9 -20 -20 16 14 10 -20 -20 -20 -20 1 -18 4 -20 -20 -20 -20 -20 -20 -20 -20 -20 -20 20 -2 -20 -20 -20 -20 -3 -0 -7 -16
14 16 17 13 9 11 10 6 11 9 16 23 35 34 16 -20 5 13 4 5 -17 -20 -20 -20 -20 -20 -20 29 16 -20 -20 -20 -20 -18 -15 -20 -8 -6 -1 -20 -20 -12 -20 -10 7 -0 -20
18 20 18 14 8 8 12 15 12 10 17 28 36 32 5 10 15 8 -8 -12 -20 -20 -20 -20 -20 -20 -20 -19 -16 13 12 -20 -20 -20 -20 -15 -1 5 -15 -20 -20 -19 -20 -20 -20 -19 -4
12 11 9 8 9 10 13 12 15 16 18 27 37 28 19 17 -2 -20 5 -7 -19 -20 -20 -20 -20 -20 -20 -20 -12 3 -2 6 -20 -20 -20 -14 24 7 -8 -17 -15 -20 -20 -20 -20 -18 -17
12 13 12 9 16 13 11 18 21 19 22 32 36 28 28 25 -20 -20 -20 -2 -15 -20 -20 -20 -20 -20 -17 -18 -20 -4 -0 -10 -20 -20 -20 7 -14 18 -17 -20 4 -11 -20 -20 -20 -3 -7
7 7 9 13 12 18 2 16 15 20 25 34 40 28 12 15 16 -20 -4 -3 -8 -20 -20 -20 -20 -20 -20 -20 -20 -20 22 -0 -19 -20 -20 -13 3 -20 -20 -16 11 -0 -20 -20 -20 -20 -20
-20 3 -10 5 3 -20 -4 16 -17 13 23 34 37 27 -7 -20 5 8 -19 -6 -20 -20 -20 -20 -20 -20 -20 -20 -20 -20 18 8 1 18 12 -20 -20 4 -8 -15 23 15 7 -20 -20 -20 -20
9 -3 -16 -12 -19 0 4 -10 13 17 24 36 39 18 -20 -20 6 14 -16 -20 -12 -20 -20 -20 -20 -20 -20 -20 -20 -0 1 -18 -20 29 12 -20 -20 -4 -2 2 -0 27 -6 -20 -16 -20 -20
14 11 7 10 -1 11 11 8 -5 17 27 40 38 16 26 18 -17 -14 -20 -9 -14 -20 -20 -20 -20 -20 -20 -20 -20 -17 -3 -12 -20 -15 -20 -20 -20 6 -7 10 6 -14 -19 10 -5 -20 -10
12 18 16 15 14 14 11 11 -20 7 3 32 41 19 28 28 -20 -3 -20 -20 -20 -20 -20 -20 -20 -20 -20 28 9 6 27 22 -3 -20 -16 -20 -20 0 19 6 -14 -15 -16 -7 -20 -20 -20
10 12 15 -1 11 9 9 6 7 8 15 18 39 38 30 26 -20 -20 -20 -20 -20 -20 -20 -20 -20 -20 -20 -20 23 17 2 9 15 -15 -20 16 -19 -20 -18 -20 -20 -20 6 -19 -20 -20 -20
10 6 4 16 13 8 4 4 3 4 22 14 34 26 38 31 -15 -20 -20 -20 -20 -20 -20 -20 -20 -20 -20 11 2 7 -11 8 6 -20 -20 -20 -20 -20 -19 -20 -20 -20 10 8 -15 -20 -11
14 -2 -6 -12 15 14 12 9 13 12 13 22 35 21 39 27 -19 -20 -20 -16 5 -7 -20 -20 -20 -20 -20 -18 -14 -17 -18 -20 17 -16 -20 -20 -20 -15 -20 -20 -20 -20 17 18 -10 -20 -8
11 13 15 11 13 19 14 16 5 26 22 28 32 21 42 23 -11 -20 -20 -7 -19 -20 -20 -20 -20 -20 -20 -18 36 4 -20 -20 -20 -20 -20 -20 -20 -20 -20 -20 -20 14 21 18 1 -20 -19